Location: The Jewett Observatory
(46.7288°N, 117.1525°W)
Time: 14:30:57
(UTC-07:00)

Daily predictions for brighter satellites

Satellite Brightness Start Highest point End
(mag) Time Altitude Azimuth Time Altitude Azimuth Time Altitude Azimuth
USA 234 3.7 20:56:34 10° ENE 21:02:39 39° SE 21:08:42 10° SSW
ERS-2 3.5 21:02:56 10° S 21:06:25 40° W 21:09:55 10° NNW
NOSS 3-2 (A) 4.1 21:01:23 10° SW 21:07:21 64° NW 21:14:04 10° NE
SL-08 RB Rocket 4.3 21:03:29 10° SE 21:07:45 42° ENE 21:12:05 10° N
Cosmos 1666 3.8 21:07:19 10° NNW 21:11:02 46° W 21:14:45 10° SSW
ERS-1 Rocket 3.6 21:08:21 10° SE 21:13:02 41° ENE 21:17:44 10° N
Meteor 1-13 Rocket 4.4 21:07:18 10° S 21:13:11 72° E 21:19:08 10° NNE
NOSS 3-2 (C) 3.8 21:08:45 10° SW 21:14:45 76° NW 21:21:31 10° NE
Cosmos 1356 3.9 21:15:46 10° SSE 21:19:03 41° E 21:22:22 10° NNE
Cosmos 2360 Rocket 2.2 21:14:04 10° NNW 21:19:45 82° ENE 21:25:24 10° SSE
Aureole 2 Rocket 2.3 21:18:39 10° NNW 21:21:34 59° WSW 21:24:17 10° S
Cosmos 2219 Rocket 3.4 21:17:13 10° N 21:22:09 30° NE 21:27:03 10° ESE
CENTAUR R/B 2.5 21:20:54 10° SSW 21:26:52 69° ESE 21:33:47 10° NE
Cosmos 1814 Rocket 4.2 21:24:36 10° SSW 21:29:52 79° WNW 21:35:14 10° NNE
MetOp-A 4.2 21:26:02 10° SSE 21:31:23 87° ENE 21:36:48 10° NNW
Okean 2 4.4 21:29:32 11° SSE 21:33:02 29° E 21:36:39 10° NNE
Cosmos 1455 Rocket 3.2 21:29:00 10° NNW 21:33:23 77° W 21:37:46 10° S
Iridium 2 4.3 21:30:22 10° SSW 21:34:08 59° W 21:37:57 10° N
Cosmos 1125 Rocket 3.7 21:32:39 10° NNW 21:37:52 60° ENE 21:42:26 13° SE
SPOT 1/Viking Rocket 4.1 21:35:49 12° SE 21:40:19 45° ENE 21:45:13 10° N
Cosmos 1513 Rocket 4.5 21:34:28 10° S 21:40:31 70° E 21:46:43 10° NNE
Helios 1A 3.5 21:37:36 13° SE 21:41:02 44° ENE 21:45:01 10° N
USA 245 3.6 21:38:07 13° SSE 21:41:30 63° ENE 21:46:17 10° N
BREEZE-M DEB 4.2 21:37:56 10° WNW 21:41:40 76° NNE 21:44:04 13° ESE
H-2A R/B 2.0 21:38:36 10° SSE 21:43:34 89° W 21:48:42 10° NNW
ATLAS 3B R/B 4.4 21:37:20 10° WSW 21:43:51 38° NW 21:50:09 10° NNE
Cosmos 1356 Rocket 4.3 21:43:16 13° SSE 21:46:31 33° E 21:50:25 10° NNE
Cosmos 2034 Rocket 4.0 21:41:02 10° S 21:47:05 64° E 21:53:11 10° NNE
Cosmos 1464 Rocket 4.1 21:42:45 10° S 21:49:08 88° ESE 21:55:34 10° N
SL-16 R/B 4.4 21:49:40 10° N 21:52:56 15° NE 21:56:12 10° ENE
Cosmos 2333 Rocket 2.9 21:47:47 10° NNW 21:53:16 44° NE 21:57:46 15° ESE
COSMOS 2428 2.8 21:50:35 10° NNW 21:56:16 69° ENE 22:00:42 17° SE
Shenzhou-11 Module 4.3 21:55:36 10° SW 21:56:55 12° SSW 21:57:41 11° S
Helios 1B rocket 3.3 21:54:48 10° NNE 21:58:34 32° E 22:00:55 19° SSE
COSMOS 2455 4.5 21:57:07 13° ESE 21:58:35 14° ESE 22:01:38 10° ENE
Cosmos 1515 3.9 21:55:19 10° SSW 21:59:08 73° W 22:02:59 10° N
Iridium 40 4.5 22:00:10 30° SE 22:00:51 39° E 22:03:09 10° NNE
Abrixas rocket 2.6 21:57:59 10° W 22:01:12 64° N 22:04:25 10° ENE
Meteor 1-23 Rocket 4.2 21:57:04 10° S 22:02:38 87° W 22:08:15 10° N
Terra 2.6 22:00:26 17° SE 22:03:39 39° ENE 22:08:04 10° N
DMSP B5D2-2 4.1 22:00:17 10° NNE 22:05:33 64° ESE 22:10:39 11° S
Lacrosse 5 rocket 2.5 22:02:18 10° WNW 22:06:12 33° SW 22:08:48 17° S
Tiangong 2 1.8 22:03:26 10° WSW 22:06:21 35° S 22:07:27 26° SSE
ARGOS 4.0 22:01:21 10° S 22:06:33 48° W 22:11:48 10° NNW
Cosmos 540 Rocket 3.6 22:02:18 10° SSW 22:07:28 82° WNW 22:12:41 10° NNE
SPOT 5 2.7 22:05:36 18° SSE 22:08:56 81° ENE 22:13:38 10° NNW
SJ 16-02 1.8 22:04:47 10° NNW 22:09:09 56° WSW 22:12:38 15° S
Cosmos 2297 Rocket 3.8 22:10:46 15° ESE 22:12:07 16° E 22:15:25 10° ENE
Cosmos 2228 4.4 22:09:42 10° NNE 22:13:18 25° ENE 22:15:22 18° ESE
ISS -2.1 22:11:05 10° WNW 22:14:06 33° N 22:17:06 10° ENE
IGS 5A 3.8 22:12:02 22° SE 22:14:29 51° ENE 22:18:33 10° N
Cosmos 2322 Rocket 4.5 22:11:11 10° WNW 22:14:45 17° W 22:18:19 10° SW
Cosmos 2227 Rocket 3.6 22:14:14 17° ESE 22:15:51 19° E 22:19:44 10° NE
Cosmos 2322 4.3 22:12:05 10° NW 22:17:37 51° WSW 22:22:10 15° S
Cosmos 2237 Rocket 3.0 22:14:25 10° NNW 22:19:48 41° NE 22:23:44 17° ESE
Cosmos 1536 Rocket 4.5 22:17:03 10° SSW 22:21:22 50° WNW 22:25:45 10° N
Cosmos 1544 3.2 22:20:34 10° N 22:24:15 63° E 22:25:57 29° SSE
Cosmos 1726 Rocket 4.2 22:21:13 10° N 22:25:26 42° ENE 22:27:35 25° SE
Okean 1-7 Rocket 3.9 22:25:45 24° SSE 22:28:17 52° E 22:32:42 10° NNE
Cosmos 1066 Rocket 4.1 22:26:50 16° S 22:31:07 76° E 22:36:38 10° NNE
Cosmos 192 4.5 22:39:49 25° S 22:42:29 54° ESE 22:47:18 10° NNE
Cosmos 2058 Rocket 3.6 22:41:05 10° N 22:45:29 48° ENE 22:47:19 30° SE
USA 234 3.5 22:39:25 10° NE 22:45:59 75° NNW 22:52:31 10° WSW
Cosmos 1766 3.3 22:42:55 10° N 22:46:55 68° E 22:48:23 36° SSE
DELTA 2 R/B (1) 4.3 22:43:01 10° SW 22:47:45 29° SSE 22:48:24 28° SSE
CZ-4C R/B 3.2 22:41:23 10° NW 22:48:27 61° WSW 22:53:30 24° SSE
Cosmos 2219 3.2 22:43:57 12° SSW 22:49:16 78° ESE 22:55:02 10° NNE
Cosmos 1092 Rocket 4.2 22:45:02 10° NNW 22:51:21 69° W 22:55:46 21° S
CARTOSAT-1 3.8 22:50:13 28° S 22:52:23 65° WSW 22:56:42 10° NNW
ASTRO F (AKARI) 4.4 22:49:22 10° NNE 22:52:38 58° ESE 22:53:15 47° SSE
Meteor 1-21 4.5 22:51:53 28° SSE 22:54:32 51° E 22:59:59 10° NNE
Meteor 1-22 Rocket 4.0 22:52:14 10° NNW 22:57:37 83° W 23:00:22 29° S
Cosmos 1025 Rocket 4.0 22:53:56 12° SSW 22:57:40 44° WNW 23:01:54 10° N
CZ-2C R/B 3.0 22:52:29 10° NNE 22:57:59 50° E 23:00:28 30° SSE
NOSS 0 Rocket 3.9 22:53:01 10° NNW 22:59:17 81° WSW 23:02:39 29° SSE
BREEZE-M R/B 3.0 22:58:18 10° WNW 23:00:59 41° N 23:02:04 24° ENE
Cosmos 2360 Rocket 4.4 22:59:36 10° WNW 23:03:00 16° W 23:06:24 10° SW
Meteor 1-29 3.5 22:59:43 10° N 23:03:09 57° WNW 23:04:45 28° SW
Cosmos 2219 Rocket 2.7 23:00:57 10° NW 23:06:21 50° WSW 23:09:09 27° S
ERBS 2.8 23:03:17 10° NW 23:06:37 54° NE 23:07:36 37° E
ALOS 2 4.4 23:05:21 16° E 23:07:12 21° ENE 23:10:29 10° NNE
Cosmos 1606 Rocket 4.0 23:04:05 10° NNW 23:08:28 58° W 23:10:26 30° SSW
Cosmos 1538 Rocket 4.0 23:09:12 33° S 23:11:28 63° ESE 23:16:40 10° NNE
Cosmos 1626 Rocket 4.5 23:11:03 31° ESE 23:11:54 33° E 23:15:55 10° NNE
Cosmos 489 Rocket 4.5 23:06:25 10° NNW 23:12:49 84° WSW 23:16:04 31° SSE
Cosmos 1758 3.7 23:10:24 10° N 23:14:24 51° ENE 23:15:22 41° ESE
CZ-2C R/B 3.4 23:13:05 30° S 23:15:51 67° WSW 23:21:33 10° NNW
CENTAUR R/B 4.3 23:12:17 10° W 23:18:07 36° NNW 23:24:47 10° NE
Cosmos 2026 Rocket 4.1 23:12:15 10° NNW 23:18:22 67° W 23:21:44 27° SSW
Cosmos 1805 3.3 23:15:45 10° NNW 23:19:42 73° W 23:20:41 48° SSW
Cosmos 1842 3.1 23:21:07 49° S 23:22:06 89° W 23:26:03 10° N
Mayak 0.4 23:19:32 10° NE 23:22:48 21° E 23:22:59 21° E
Cosmos 2084 Rocket 3.2 23:19:17 10° NW 23:23:16 69° SW 23:23:57 55° S
H-2A R/B 4.5 23:21:56 10° WSW 23:23:47 12° W 23:25:38 10° WNW
Cosmos 2279 Rocket 3.9 23:22:26 29° S 23:25:49 89° ESE 23:32:05 10° N
Cosmos 1470 3.3 23:23:08 10° N 23:26:52 43° ENE 23:27:28 40° ESE
Cosmos 1655 Rocket 4.1 23:26:54 10° N 23:33:17 78° W 23:36:23 33° S
Helios 1B rocket 4.4 23:30:19 10° N 23:33:44 25° WNW 23:37:08 10° WSW
Cosmos 1174 4.4 23:33:56 10° NW 23:36:26 33° WSW 23:36:26 33° WSW
Cosmos 2333 Rocket 3.3 23:32:20 10° NW 23:37:23 33° WSW 23:39:47 24° SSW
Abrixas rocket 2.2 23:34:31 10° WNW 23:37:32 75° NW 23:37:32 75° NW
SL-16 R/B 2.4 23:32:34 10° NNW 23:38:14 65° ENE 23:40:43 34° SE
H-2A R/B 3.4 23:37:16 25° E 23:38:36 30° ENE 23:42:18 10° N
Terra 3.4 23:39:19 19° SW 23:41:29 27° W 23:45:32 10° NW
COSMOS 2455 2.8 23:40:11 28° SSW 23:43:34 81° ESE 23:49:38 10° NE
Cosmos 773 Rocket 4.1 23:43:59 30° SW 23:46:34 73° WNW 23:51:44 10° NNE
Cosmos 1980 4.3 23:41:17 10° NW 23:46:40 45° WSW 23:48:37 33° SSW
Intercosmos 25 4.1 23:46:36 31° SW 23:47:54 43° W 23:51:05 10° N
Cosmos 1707 3.2 23:47:59 44° E 23:48:07 44° E 23:51:51 10° NNE
CZ-4C R/B 4.2 23:48:37 37° ESE 23:49:47 47° ENE 23:54:01 10° N
Cosmos 2228 4.3 23:47:03 10° NNW 23:50:53 32° W 23:52:13 26° SW
ISS -3.2 23:47:46 10° WNW 23:50:59 53° NNE 23:51:28 48° NE
Cosmos 1378 3.0 23:52:08 71° ESE 23:52:18 72° E 23:56:03 10° NNE
Meteor 2-11 Rocket 4.5 23:49:58 38° SSE 23:52:18 68° E 23:58:20 10° NNE
SAR-Lupe-4 4.4 23:53:02 38° WSW 23:53:17 38° W 23:56:40 10° NNW
Cosmos 1953 2.2 23:50:25 10° NNW 23:54:25 78° W 23:54:54 65° SSW
